GFSFLT1_500_temp_000.txt.gz
Temp
-13 -13 -13 -13 -13 -13 -14 -14 -14 -14 -14 -14 -14 -14 -14 -14 -14 -14 -14 -15 -15 -15 -15 -15 -15 -15 -16 -16 -16 -16 -16 -16
-13 -14 -14 -14 -14 -14 -14 -14 -14 -15 -14 -14 -14 -15 -15 -15 -15 -14 -15 -15 -15 -15 -15 -15 -16 -16 -16 -16 -16 -16 -16 -16
-14 -14 -14 -14 -15 -15 -15 -15 -15 -16 -15 -15 -15 -15 -15 -15 -15 -15 -15 -15 -16 -16 -16 -16 -16 -16 -16 -17 -17 -17 -17 -17
-14 -14 -14 -15 -15 -15 -16 -16 -16 -16 -15 -15 -15 -15 -15 -15 -15 -16 -16 -16 -16 -16 -16 -16 -16 -16 -16 -16 -17 -17 -17 -18
-14 -14 -14 -14 -15 -15 -15 -15 -16 -15 -15 -15 -15 -15 -15 -16 -16 -17 -17 -17 -17 -17 -17 -17 -17 -16 -17 -17 -17 -18 -18 -19
-15 -15 -15 -15 -15 -15 -15 -15 -15 -15 -14 -15 -15 -15 -16 -16 -16 -16 -17 -17 -17 -18 -18 -18 -17 -17 -18 -17 -17 -18 -19 -20
-16 -16 -16 -16 -16 -16 -17 -15 -15 -15 -16 -16 -17 -17 -17 -17 -17 -17 -17 -17 -17 -18 -18 -19 -19 -18 -18 -19 -20 -20 -21 -22
-16 -16 -16 -16 -16 -17 -17 -17 -16 -17 -17 -18 -18 -19 -18 -18 -18 -18 -18 -18 -18 -18 -19 -19 -20 -21 -21 -22 -23 -23 -24 -23
-16 -16 -17 -17 -18 -17 -17 -17 -18 -18 -18 -18 -18 -19 -19 -19 -19 -19 -19 -19 -19 -19 -19 -20 -21 -23 -24 -25 -25 -25 -26 -25
-17 -18 -18 -18 -17 -17 -17 -18 -18 -18 -18 -18 -18 -18 -19 -19 -19 -19 -19 -20 -20 -21 -21 -23 -24 -25 -25 -25 -26 -26 -26 -26
-18 -18 -18 -17 -18 -18 -18 -18 -18 -18 -18 -18 -18 -18 -18 -19 -19 -19 -20 -20 -21 -21 -22 -24 -25 -25 -25 -26 -26 -26 -26 -26
-18 -17 -18 -18 -18 -18 -18 -18 -18 -18 -18 -18 -18 -18 -18 -19 -19 -20 -21 -21 -21 -22 -23 -24 -25 -26 -26 -26 -26 -26 -26 -26
-18 -19 -19 -19 -19 -19 -19 -19 -19 -19 -19 -19 -19 -19 -19 -20 -21 -21 -21 -22 -22 -23 -24 -26 -26 -26 -26 -26 -26 -26 -26 -26
-19 -19 -19 -19 -19 -19 -20 -19 -19 -19 -20 -20 -20 -20 -21 -21 -21 -22 -22 -23 -24 -26 -26 -26 -27 -27 -27 -27 -26 -26 -26 -26
-19 -19 -19 -19 -20 -20 -20 -20 -20 -20 -20 -21 -22 -22 -22 -22 -22 -23 -24 -25 -26 -27 -27 -27 -27 -27 -26 -26 -26 -26 -26 -27
-20 -20 -20 -20 -20 -20 -20 -20 -21 -21 -21 -21 -22 -22 -22 -22 -23 -24 -26 -27 -27 -27 -27 -27 -27 -27 -27 -27 -27 -27 -27 -27
-20 -21 -20 -21 -21 -21 -21 -21 -21 -21 -22 -23 -23 -23 -23 -24 -25 -27 -27 -27 -28 -28 -28 -28 -28 -28 -27 -27 -27 -27 -27 -28
-20 -20 -20 -21 -21 -21 -21 -21 -22 -23 -23 -24 -24 -24 -26 -27 -28 -28 -28 -28 -28 -28 -28 -28 -28 -28 -28 -27 -27 -27 -28 -29
-20 -21 -21 -21 -22 -22 -22 -23 -23 -24 -25 -24 -25 -26 -27 -28 -28 -28 -28 -28 -28 -28 -28 -28 -28 -28 -28 -28 -28 -29 -30 -30

GFSFLT1_500_temp_003.txt.gz
Temp
-14 -14 -14 -14 -14 -14 -14 -15 -15 -15 -15 -14 -14 -14 -14 -14 -14 -15 -15 -15 -15 -15 -15 -15 -15 -15 -15 -16 -16 -16 -16 -16
-13 -14 -14 -15 -15 -15 -15 -15 -15 -15 -15 -15 -15 -15 -15 -15 -15 -14 -15 -15 -15 -15 -16 -16 -16 -16 -16 -16 -16 -16 -17 -16
-14 -14 -15 -15 -15 -15 -16 -16 -16 -16 -16 -16 -16 -16 -16 -16 -16 -15 -15 -15 -15 -16 -16 -16 -16 -17 -17 -17 -18 -18 -18 -18
-14 -15 -16 -15 -15 -16 -16 -16 -16 -15 -15 -15 -15 -15 -15 -16 -16 -16 -16 -16 -16 -16 -17 -17 -17 -17 -17 -17 -17 -17 -18 -18
-15 -15 -15 -15 -15 -15 -16 -15 -15 -15 -15 -15 -15 -15 -15 -15 -15 -15 -16 -17 -17 -17 -17 -18 -18 -18 -17 -18 -17 -17 -17 -18
-14 -15 -15 -16 -16 -17 -16 -16 -15 -15 -16 -16 -16 -16 -16 -17 -17 -17 -17 -17 -18 -18 -18 -18 -18 -18 -18 -18 -18 -18 -19 -19
-15 -16 -16 -16 -16 -16 -15 -16 -16 -16 -17 -17 -17 -17 -17 -17 -17 -18 -18 -18 -18 -18 -18 -18 -19 -19 -20 -20 -20 -20 -20 -20
-16 -16 -16 -16 -16 -16 -17 -17 -17 -17 -17 -17 -18 -18 -18 -18 -18 -18 -19 -19 -19 -19 -19 -20 -20 -20 -20 -21 -21 -21 -21 -21
-16 -16 -17 -17 -17 -17 -17 -17 -17 -18 -18 -18 -18 -18 -19 -19 -19 -19 -19 -19 -19 -19 -19 -20 -20 -21 -21 -22 -22 -23 -23 -24
-16 -17 -17 -17 -18 -17 -17 -17 -18 -18 -18 -19 -19 -19 -19 -19 -20 -19 -19 -19 -19 -20 -20 -21 -21 -21 -22 -22 -25 -25 -25 -26
-17 -17 -18 -18 -18 -17 -18 -18 -18 -19 -19 -19 -19 -20 -20 -20 -20 -20 -20 -20 -20 -21 -21 -21 -21 -22 -23 -25 -26 -26 -26 -26
-17 -17 -18 -18 -18 -18 -18 -19 -19 -20 -20 -20 -20 -20 -20 -20 -21 -21 -22 -22 -22 -22 -22 -22 -22 -23 -25 -26 -27 -27 -27 -27
-18 -18 -18 -18 -18 -19 -19 -20 -20 -20 -21 -21 -21 -21 -21 -22 -22 -22 -23 -23 -23 -23 -23 -23 -25 -26 -27 -27 -27 -27 -27 -27
-17 -18 -18 -18 -19 -20 -20 -21 -21 -21 -21 -21 -22 -22 -23 -23 -23 -24 -24 -24 -24 -25 -26 -27 -27 -27 -28 -28 -28 -27 -27 -27
-18 -19 -19 -19 -20 -20 -21 -21 -21 -21 -22 -22 -22 -23 -23 -24 -24 -24 -25 -25 -26 -27 -28 -28 -28 -28 -28 -28 -28 -27 -27 -27
-20 -20 -20 -20 -21 -21 -21 -21 -22 -22 -22 -23 -23 -24 -24 -24 -25 -26 -26 -27 -28 -29 -29 -29 -28 -28 -28 -28 -28 -27 -27 -27
-20 -20 -21 -21 -21 -22 -22 -22 -21 -23 -24 -24 -24 -25 -25 -26 -26 -28 -29 -29 -30 -29 -29 -29 -29 -29 -29 -28 -28 -28 -28 -28
-21 -21 -21 -21 -21 -21 -22 -23 -24 -24 -25 -25 -26 -26 -26 -27 -29 -29 -29 -29 -29 -29 -29 -29 -29 -29 -29 -28 -28 -28 -28 -28
-21 -21 -21 -22 -23 -24 -24 -24 -25 -26 -26 -26 -27 -27 -27 -29 -29 -30 -30 -29 -29 -29 -29 -29 -29 -29 -29 -28 -28 -28 -28 -28

GFSFLT1_500_temp_006.txt.gz
Temp
-13 -13 -14 -14 -14 -14 -14 -15 -15 -15 -15 -15 -15 -15 -15 -15 -15 -15 -15 -15 -15 -15 -15 -15 -15 -15 -15 -15 -16 -16 -16 -16
-14 -14 -14 -14 -15 -15 -15 -15 -15 -16 -15 -15 -15 -16 -16 -16 -16 -16 -16 -16 -16 -16 -16 -16 -16 -16 -16 -16 -16 -17 -17 -17
-14 -14 -15 -15 -16 -16 -16 -16 -16 -16 -16 -16 -16 -16 -16 -16 -15 -16 -16 -16 -15 -15 -15 -16 -16 -16 -16 -17 -17 -18 -18 -18
-14 -14 -15 -15 -16 -16 -16 -16 -16 -15 -15 -15 -15 -15 -15 -15 -15 -15 -16 -16 -16 -16 -16 -16 -16 -17 -17 -18 -18 -18 -19 -19
-14 -15 -15 -16 -16 -15 -15 -15 -15 -16 -16 -16 -16 -16 -15 -16 -16 -16 -17 -17 -17 -17 -18 -18 -18 -18 -18 -18 -18 -18 -19 -19
-14 -15 -15 -15 -15 -15 -16 -16 -16 -17 -16 -16 -16 -16 -16 -16 -17 -17 -17 -18 -18 -19 -19 -19 -19 -19 -19 -19 -19 -19 -19 -19
-15 -15 -16 -16 -16 -17 -16 -16 -17 -17 -17 -17 -17 -17 -17 -18 -18 -18 -19 -19 -19 -19 -19 -20 -20 -20 -20 -20 -20 -20 -21 -21
-16 -16 -16 -16 -16 -16 -16 -16 -17 -17 -17 -17 -18 -19 -19 -19 -19 -19 -19 -20 -20 -20 -20 -20 -20 -20 -21 -21 -21 -21 -21 -21
-15 -15 -15 -16 -16 -16 -16 -17 -17 -17 -17 -18 -19 -19 -19 -20 -20 -20 -20 -20 -21 -20 -20 -20 -20 -20 -21 -21 -22 -22 -22 -23
-15 -16 -16 -16 -16 -16 -16 -17 -17 -18 -19 -19 -19 -20 -20 -21 -21 -21 -21 -21 -22 -21 -21 -21 -21 -21 -21 -22 -23 -23 -24 -26
-16 -16 -16 -16 -16 -17 -17 -18 -18 -18 -19 -20 -20 -20 -21 -21 -22 -22 -22 -22 -22 -22 -23 -22 -22 -22 -22 -24 -23 -24 -25 -27
-16 -17 -17 -18 -18 -18 -18 -18 -19 -19 -19 -19 -20 -21 -21 -21 -22 -22 -23 -23 -23 -23 -23 -23 -23 -24 -25 -25 -26 -27 -28 -28
-18 -18 -18 -18 -17 -18 -18 -19 -19 -20 -20 -21 -21 -22 -22 -23 -23 -23 -23 -23 -23 -24 -24 -25 -26 -27 -28 -28 -28 -28 -28 -28
-18 -18 -18 -18 -18 -19 -19 -20 -20 -21 -21 -21 -22 -22 -23 -24 -24 -24 -24 -24 -24 -25 -26 -28 -29 -29 -29 -29 -29 -29 -29 -29
-17 -18 -19 -19 -19 -20 -20 -21 -21 -21 -21 -22 -23 -23 -24 -24 -24 -24 -24 -26 -27 -28 -29 -30 -30 -30 -30 -30 -29 -29 -29 -29
-18 -19 -19 -20 -20 -21 -21 -21 -22 -22 -23 -24 -24 -24 -24 -25 -25 -25 -26 -28 -30 -30 -30 -31 -30 -30 -30 -30 -29 -29 -29 -29
-20 -20 -20 -21 -21 -21 -21 -22 -23 -24 -24 -24 -24 -25 -25 -26 -26 -28 -29 -31 -30 -30 -30 -30 -30 -30 -30 -30 -30 -29 -29 -29
-20 -21 -21 -21 -22 -22 -23 -24 -24 -24 -25 -25 -26 -26 -27 -27 -28 -30 -30 -30 -30 -30 -30 -30 -30 -30 -30 -29 -29 -29 -29 -29
-21 -21 -21 -22 -23 -23 -24 -25 -25 -25 -26 -27 -27 -27 -27 -29 -30 -30 -30 -30 -30 -30 -30 -30 -30 -30 -30 -29 -29 -29 -29 -29

GFSFLT1_500_temp_009.txt.gz
Temp
-13 -13 -13 -14 -14 -15 -15 -14 -14 -14 -14 -15 -15 -15 -15 -15 -15 -15 -15 -15 -15 -15 -15 -15 -15 -15 -16 -16 -16 -16 -16 -16
-13 -14 -14 -14 -14 -15 -15 -15 -15 -15 -15 -15 -15 -15 -16 -16 -16 -16 -15 -15 -15 -15 -15 -15 -15 -16 -16 -16 -16 -17 -17 -17
-14 -14 -14 -15 -15 -15 -15 -15 -15 -15 -16 -16 -16 -16 -16 -15 -15 -15 -15 -15 -16 -16 -16 -16 -17 -17 -17 -18 -18 -17 -17 -18
-14 -15 -15 -15 -15 -15 -16 -16 -16 -16 -16 -16 -15 -15 -15 -15 -15 -15 -16 -17 -17 -17 -17 -17 -17 -18 -18 -18 -19 -19 -19 -19
-15 -15 -15 -15 -15 -16 -16 -16 -16 -16 -16 -16 -15 -15 -16 -16 -16 -17 -17 -17 -17 -17 -18 -18 -18 -19 -19 -19 -19 -19 -19 -19
-15 -15 -15 -15 -16 -16 -16 -16 -16 -16 -16 -16 -17 -17 -17 -17 -17 -17 -18 -18 -19 -19 -19 -19 -20 -20 -20 -20 -21 -20 -20 -20
-15 -15 -15 -16 -16 -16 -16 -17 -17 -17 -17 -17 -17 -17 -17 -17 -18 -19 -19 -19 -19 -20 -20 -21 -21 -21 -21 -21 -21 -21 -21 -21
-15 -16 -16 -16 -16 -16 -16 -16 -17 -17 -17 -17 -17 -18 -18 -18 -19 -19 -19 -20 -20 -20 -20 -21 -21 -21 -21 -21 -21 -21 -21 -21
-15 -15 -15 -16 -16 -16 -17 -17 -17 -17 -17 -17 -18 -18 -19 -20 -20 -21 -21 -21 -20 -21 -22 -22 -22 -22 -22 -22 -22 -22 -21 -21
-16 -16 -16 -16 -16 -16 -16 -17 -17 -18 -18 -19 -19 -20 -20 -20 -20 -21 -21 -22 -22 -22 -23 -23 -23 -22 -23 -23 -23 -22 -22 -22
-16 -16 -16 -16 -16 -17 -17 -17 -18 -18 -18 -19 -19 -20 -20 -21 -21 -22 -22 -23 -23 -23 -24 -23 -24 -24 -24 -24 -24 -25 -26 -27
-16 -16 -17 -17 -17 -17 -17 -17 -18 -19 -19 -20 -20 -21 -21 -22 -22 -22 -23 -23 -24 -24 -24 -24 -24 -25 -26 -27 -27 -28 -30 -29
-17 -18 -18 -17 -17 -17 -18 -18 -19 -20 -20 -21 -21 -22 -22 -22 -23 -23 -24 -24 -24 -25 -25 -26 -27 -28 -29 -30 -30 -30 -30 -30
-17 -17 -17 -17 -18 -19 -19 -20 -20 -21 -21 -21 -22 -23 -23 -23 -24 -24 -24 -25 -25 -26 -27 -28 -29 -30 -30 -30 -30 -30 -30 -30
-17 -17 -17 -18 -19 -20 -20 -21 -21 -21 -22 -23 -23 -24 -24 -25 -25 -25 -26 -26 -27 -28 -30 -30 -31 -31 -31 -31 -31 -31 -30 -30
-18 -18 -18 -18 -20 -21 -21 -22 -22 -22 -24 -25 -25 -25 -25 -26 -26 -26 -27 -27 -29 -30 -31 -31 -31 -30 -30 -31 -31 -30 -30 -30
-18 -18 -19 -21 -21 -21 -22 -22 -23 -24 -25 -26 -26 -26 -26 -27 -27 -28 -29 -30 -31 -30 -31 -31 -31 -31 -30 -30 -30 -30 -30 -30
-19 -20 -21 -21 -22 -23 -23 -24 -24 -24 -25 -26 -26 -26 -27 -28 -28 -30 -30 -30 -30 -31 -31 -31 -31 -31 -30 -30 -30 -30 -30 -29
-21 -21 -22 -23 -23 -23 -23 -23 -25 -26 -26 -26 -27 -28 -29 -29 -30 -31 -31 -31 -31 -31 -31 -31 -31 -31 -30 -30 -30 -30 -30 -30

GFSFLT1_500_temp_012.txt.gz
Temp
-14 -14 -14 -14 -14 -14 -14 -14 -15 -15 -15 -15 -15 -15 -15 -15 -16 -16 -15 -15 -15 -15 -15 -15 -15 -15 -15 -15 -15 -15 -16 -17
-14 -14 -14 -14 -14 -14 -15 -15 -15 -15 -15 -15 -15 -16 -16 -16 -16 -16 -15 -16 -15 -15 -15 -15 -15 -15 -16 -16 -16 -16 -17 -17
-14 -15 -15 -15 -15 -15 -15 -15 -16 -16 -16 -16 -16 -16 -16 -16 -16 -16 -16 -15 -15 -15 -15 -15 -15 -16 -16 -17 -18 -17 -17 -18
-15 -15 -15 -15 -15 -15 -15 -16 -16 -16 -16 -16 -16 -16 -16 -15 -15 -15 -16 -16 -16 -16 -17 -17 -17 -17 -17 -18 -18 -18 -18 -18
-15 -15 -15 -15 -15 -15 -16 -16 -16 -16 -16 -16 -16 -16 -16 -16 -16 -16 -17 -17 -18 -18 -18 -18 -18 -18 -19 -19 -19 -19 -20 -20
-15 -15 -15 -15 -15 -16 -16 -16 -16 -16 -16 -17 -17 -16 -16 -16 -17 -17 -18 -18 -19 -19 -19 -19 -19 -20 -20 -20 -21 -21 -21 -21
-15 -15 -15 -16 -16 -16 -16 -16 -16 -16 -17 -16 -16 -17 -17 -18 -18 -19 -19 -20 -20 -20 -20 -20 -20 -21 -21 -21 -21 -21 -22 -22
-16 -16 -16 -16 -16 -16 -16 -16 -17 -17 -16 -17 -17 -18 -19 -19 -19 -19 -19 -20 -20 -20 -20 -20 -21 -21 -21 -22 -22 -22 -22 -22
-16 -16 -16 -16 -16 -16 -17 -17 -17 -17 -17 -18 -19 -19 -20 -20 -20 -20 -20 -20 -21 -21 -21 -22 -22 -23 -23 -23 -23 -23 -24 -23
-16 -16 -16 -17 -16 -16 -16 -16 -17 -18 -19 -19 -20 -19 -20 -20 -21 -21 -21 -21 -22 -22 -22 -23 -23 -24 -24 -24 -24 -24 -24 -25
-17 -17 -17 -16 -16 -16 -17 -17 -18 -19 -19 -19 -20 -20 -20 -21 -21 -21 -22 -22 -22 -23 -24 -25 -25 -25 -25 -26 -26 -27 -28 -28
-17 -17 -17 -17 -17 -18 -18 -18 -18 -19 -20 -20 -20 -20 -21 -21 -22 -22 -23 -24 -24 -25 -25 -25 -26 -27 -27 -28 -29 -30 -30 -30
-17 -17 -17 -17 -18 -18 -18 -19 -19 -20 -20 -20 -21 -22 -22 -22 -23 -24 -24 -25 -25 -26 -26 -27 -27 -28 -29 -30 -31 -31 -31 -31
-17 -17 -17 -18 -18 -18 -19 -19 -20 -20 -21 -22 -22 -22 -23 -24 -24 -25 -25 -26 -27 -27 -28 -29 -30 -30 -31 -31 -31 -31 -31 -31
-17 -18 -18 -18 -18 -19 -20 -20 -21 -22 -23 -23 -22 -23 -24 -25 -25 -25 -26 -27 -28 -29 -30 -30 -31 -31 -31 -31 -31 -31 -31 -30
-18 -18 -18 -18 -19 -20 -20 -22 -23 -23 -23 -23 -23 -24 -25 -25 -26 -27 -28 -29 -30 -30 -31 -31 -31 -31 -31 -31 -31 -31 -31 -31
-18 -18 -18 -19 -19 -21 -22 -22 -23 -23 -23 -23 -24 -25 -26 -26 -27 -29 -30 -31 -31 -31 -31 -31 -31 -31 -31 -31 -31 -31 -31 -31
-18 -19 -19 -20 -22 -23 -23 -23 -23 -23 -24 -25 -26 -27 -27 -28 -30 -30 -31 -31 -31 -31 -31 -31 -31 -31 -31 -31 -31 -31 -31 -31
-19 -20 -21 -22 -23 -23 -23 -23 -24 -25 -26 -27 -28 -28 -29 -30 -30 -31 -31 -31 -31 -31 -31 -31 -31 -31 -31 -32 -32 -32 -32 -31